Regional Weather Roundup
Issued by NWS

Home | Current Version | Previous Version | Graphics & Text | Print | Product List | Glossary On
Versions: 1 2 3 4 5 6 7 8 9 10 11 12 13 14 15 16 17 18 19 20 21 22 23 24 25 26 27 28 29 30 31 32 33 34 35 36 37 38 39 40 41 42 43 44 45 46 47 48 49 50
465
ASUS43 KTOP 290508
RWRKS

WEATHER ROUNDUP FOR KANSAS
NATIONAL WEATHER SERVICE GOODLAND KS
1200 AM CDT SUN MAY 29 2016

NOTE:  "FAIR" INDICATES FEW OR NO CLOUDS BELOW 12,000 FEET WITH NO
SIGNIFICANT WEATHER AND/OR OBSTRUCTIONS TO VISIBILITY.

KSZ001>006-013>018-027>032-041>047-290600-
NORTHWEST KANSAS

CITY           SKY/WX    TMP DP  RH WIND       PRES   REMARKS
GOODLAND       CLEAR     57  48  72 W7        30.09R
HAYS           CLEAR     30 N/A N/A S3        30.03S
HILL CITY      CLEAR     57  54  89 CALM      30.04R
RUSSELL        CLEAR     62  56  80 S9        30.02R
$$

KSZ061>065-074>080-084>089-290600-
SOUTHWEST KANSAS

CITY           SKY/WX    TMP DP  RH WIND       PRES   REMARKS
DODGE CITY     PTCLDY    60  54  80 E8        30.05S
ELKHART          N/A     58  46  64 SE7         N/A
GARDEN CITY    CLEAR     61  50  67 E9        30.05S
GREAT BEND     CLEAR     63  52  67 SE8       30.04R
LIBERAL        CLEAR     64  45  48 SE12      30.06S
PRATT          CLEAR     65  52  64 SE5       30.05S
$$

KSZ066>073-081>083-090>101-290600-
SOUTHEAST KANSAS

CITY           SKY/WX    TMP DP  RH WIND       PRES   REMARKS
CHANUTE        CLEAR     65  61  87 S6        30.03R
COFFEYVILLE    CLEAR     66  64  93 CALM      30.02R
HUTCHINSON     CLEAR     62  58  86 CALM      30.03S
MEDICINE LODGE   N/A     66  54  65 E6        30.04R
NEWTON         CLEAR     66  54  63 CALM      30.07R
PARSONS        CLEAR     63  61  93 CALM      30.04R
WICHITA INTL   CLEAR     70  58  65 CALM      30.03R
WICHITA JABRA  CLEAR     65  60  84 NE5       30.04R
WICHITA MCCONL CLEAR     72  55  56 E2        30.04R
WINFIELD       CLEAR     67  60  78 CALM      30.03S
$$

KSZ007>012-019>026-033>040-048>060-102>105-290600-
NORTHEAST KANSAS

CITY           SKY/WX    TMP DP  RH WIND       PRES   REMARKS
CONCORDIA      CLEAR     65  55  70 S10       30.01R
EMPORIA        CLEAR     64  59  83 SW5       30.03R
LAWRENCE       CLEAR     60  58  92 CALM      30.01R
MANHATTAN      CLEAR     62  58  86 CALM      30.01S
MARYSVILLE     CLEAR     63  59  88 S5        30.00R
OLATHE IND     CLEAR     65  59  81 SW3       30.03R
OLATHE EXE     CLEAR     62  59  90 CALM      30.02S
SALINA         CLEAR     62  59  90 S5        30.02R
TOPEKA BILLARD CLEAR     64  60  87 CALM      30.01R
TOPEKA FORBES  CLEAR     64  59  83 SW5       30.02R
$$




USA.gov is the U.S. government's official web portal to all federal, state and local government web resources and services.